Location: Boullarre
(49.1305°N, 3.0047°E)
Time: 09:18:22
(UTC+00:00)

SL-16 R/B - Pass Details

Date: 03 February 2023
Orbit: 842 x 846 km, 71.0° (Epoch: 24 March)

Event Time Altitude Azimuth Distance (km) Brightness Sun altitude
Rises 18:30:13 0° 217° (SW) 3,389 6.0 -17.0°
Reaches altitude 10° 18:32:41 10° 221° (SW) 2,458 5.3 -17.4°
Maximum altitude 18:38:17 63° 302° (WNW) 940 2.6 -18.3°
Drops below altitude 10° 18:43:56 10° 24° (NNE) 2,476 4.4 -19.2°
Enters shadow 18:44:23 - 25° (NNE) 2,643 4.5 -19.3°
